Terug naar catalogus

SITRO-AIS-19

ActiefNavigatieSSO
NORAD 61759·PAYLOAD·🇷🇺 Russia
Deze satellietnaam is nog niet bevestigd door officiële bronnen.

Gelanceerd Nov 4, 2024 vanaf Vostochny Cosmodrome

Loading…

Volgende Passages (komende 24 uur)

TLE

VersSource: Space-Track

Epoch: Sep 14, 2026, 20:59 UTC

1 61759U 24199AA  26257.87486111  .00002130  00000-0  18351-3 0  9998
2 61759  97.3181  91.8986 0007089 121.7001 238.4915 14.98291360148565

Volg SITRO-AIS-19 in realtime met AllMySat

Download on the App Store